{"data":{"norad_id":61883,"epoch":"2026-05-24T22:40:18.307776Z","epoch_age_seconds":76272,"freshness":"FRESH","line1":"1 61883U 24204K   26144.94465634  .00001122  00000+0  14123-4 0  9996","line2":"2 61883  53.1593 340.1787 0001115 103.6134 256.5008 15.69701625 88891","mean_motion":15.69701625,"eccentricity":0.0001115,"inclination_deg":53.1593,"raan_deg":340.1787,"arg_perigee_deg":103.6134,"mean_anomaly_deg":256.5008,"bstar":1.4123e-5,"rev_number":8889,"period_min":91.737179669416,"perigee_km":358.99944209016,"apogee_km":360.50199105096,"semimajor_km":6737.8877165706,"source":"CELESTRAK","updated_at":"2026-05-25T13:38:19.476737Z"}}